Location: College Rock
(37.2713°N, 119.1740°W)
Time: 13:00:43
(UTC+00:00)

ERS-2 - Pass Details

Date: 29 October 2020
Orbit: 493 x 497 km, 98.6° (Epoch: 01 December)

Event Time Altitude Azimuth Distance (km) Brightness Sun altitude
Rises 13:37:29 0° 208° (SSW) 2,565 5.6 -8.8°
Reaches altitude 10° 13:40:33 10° 238° (WSW) 1,688 4.4 -8.2°
Maximum altitude 13:42:15 13° 266° (W) 1,520 4.0 -7.9°
Drops below altitude 10° 13:43:57 10° 294° (WNW) 1,693 4.2 -7.6°
Enters shadow 13:44:44 - 304° (NW) 1,867 4.4 -7.4°
